Newark, NJ

2:36 PM EST on February 08, 2016 (GMT -0500)
Newark International

Weather History for KEWR - November, 2012

Change the Weather History Date:

Wednesday, November 7, 2012

  Actual Average Record
Temperature  
Mean Temperature 36 °F 50 °F  
Max Temperature 40 °F 58 °F 78 °F (1938)
Min Temperature 32 °F 42 °F 28 °F (1931)
Degree Days  
Heating Degree Days 29 15  
Month to date heating degree days 153 101  
Since 1 July heating degree days 380 422  
Cooling Degree Days 0 0  
Month to date cooling degree days 0 0  
Year to date cooling degree days 1450 1191  
Moisture  
Dew Point 29 °F    
Average Humidity 74    
Maximum Humidity 100    
Minimum Humidity 48    
Precipitation  
Precipitation 1.03 in 0.11 in 1.77 in (1932)
Month to date precipitation 1.03 0.82  
Year to date precipitation 30.70 39.61  
Snow  
Snow 5.70 in 0.00 in 5.70 in (2012)
Month to date snowfall 5.7 0.0  
Since 1 July snowfall 5.7 0.0  
Snow Depth 0.00 in    
Sea Level Pressure  
Sea Level Pressure 29.89 in    
Wind  
Wind Speed 18 mph (North)    
Max Wind Speed 29 mph    
Max Gust Speed 38 mph    
Visibility 4 miles    
Events Rain , Snow    
T = Trace of Precipitation, MM = Missing Value Source: NWS Daily Summary

Daily Weather History Graph

Daily Weather History Graph

Search for Another Location

Airport or City:

Trip Planner

Search our weather history database for the weather conditions in past years. The results will help you decide how hot, cold, wet, or windy it might be!

Date:

Astronomy

Nov. 07, 2012 Rise Set
Actual Time 6:34 AM EST 4:45 PM EST
Civil Twilight 6:05 AM EST 5:14 PM EST
Nautical Twilight 5:33 AM EST 5:47 PM EST
Astronomical Twilight 5:00 AM EST 6:19 PM EST
Moon No Moon Rise 12:55 PM EST (11/7)
Length of Visible Light 11h 08m
Length of Day
10h 11m
Last Quarter, 43% of the Moon is Illuminated
Nov 7
Last Quarter
Nov 13
New
Nov 20
First Quarter
Nov 28
Full
Dec 6
Last Quarter

Hourly Weather History & Observations

Time (EST) Temp. Windchill Dew Point Humidity Pressure Visibility Wind Dir Wind Speed Gust Speed Precip Events Conditions
12:51 AM 37.0 °F 28.9 °F 19.9 °F 50% 30.06 in 10.0 mi North 12.7 mph - N/A   Overcast
1:51 AM 37.0 °F 28.5 °F 21.9 °F 54% 30.04 in 10.0 mi NNE 13.8 mph - N/A   Overcast
2:51 AM 37.0 °F 27.4 °F 19.0 °F 48% 30.01 in 10.0 mi NNE 17.3 mph - N/A   Overcast
3:51 AM 37.0 °F 27.7 °F 19.9 °F 50% 29.99 in 10.0 mi NNE 16.1 mph - N/A   Overcast
4:51 AM 37.0 °F 26.7 °F 24.1 °F 59% 29.97 in 10.0 mi NNE 19.6 mph - N/A   Overcast
5:51 AM 37.9 °F 28.2 °F 26.1 °F 62% 29.96 in 10.0 mi NNE 18.4 mph 25.3 mph N/A   Overcast
6:51 AM 39.2 °F 29.8 °F 26.6 °F 61% 29.95 in 10.0 mi NNE 18.4 mph 25.3 mph N/A   Overcast
7:51 AM 39.0 °F 31.0 °F 27.0 °F 62% 29.96 in 10.0 mi NNE 13.8 mph 21.9 mph N/A   Overcast
8:51 AM 39.0 °F 30.3 °F 26.1 °F 60% 29.94 in 10.0 mi North 16.1 mph 24.2 mph N/A   Overcast
9:51 AM 39.9 °F 31.4 °F 27.0 °F 60% 29.91 in 10.0 mi North 16.1 mph 24.2 mph 0.00 in   Overcast
10:51 AM 39.2 °F 29.6 °F 26.6 °F 61% 29.91 in 10.0 mi North 19.6 mph 25.3 mph N/A   Unknown
11:30 AM 39.2 °F 29.3 °F 30.2 °F 70% 29.88 in 8.0 mi North 20.7 mph 28.8 mph 0.00 in Rain Light Rain Showers
11:41 AM 37.4 °F 26.6 °F 30.2 °F 75% 29.87 in 2.5 mi North 21.9 mph 31.1 mph 0.00 in Rain , Snow Light Snow
11:51 AM 37.0 °F 26.2 °F 32.0 °F 82% 29.87 in 2.5 mi North 21.9 mph 31.1 mph 0.00 in Rain , Snow Light Snow
12:07 PM 35.6 °F 24.5 °F 33.8 °F 93% 29.86 in 2.5 mi North 20.7 mph - N/A Rain , Snow Light Snow
12:15 PM 35.6 °F 24.8 °F 33.8 °F 93% 29.86 in 2.5 mi North 19.6 mph 25.3 mph 0.02 in Rain , Snow Light Snow
12:26 PM 35.6 °F 25.2 °F 33.8 °F 93% 29.86 in 2.5 mi North 18.4 mph 26.5 mph 0.03 in Rain , Snow Light Rain
12:51 PM 35.6 °F 25.2 °F 33.8 °F 93% 29.86 in 2.5 mi North 18.4 mph 25.3 mph N/A Rain Light Rain
1:09 PM 37.4 °F 27.5 °F 33.8 °F 87% 29.86 in 2.5 mi North 18.4 mph - 0.01 in Rain Light Rain
1:44 PM 35.6 °F 24.8 °F 33.8 °F 93% 29.86 in 2.0 mi North 19.6 mph 25.3 mph 0.03 in Rain , Snow Light Snow
1:51 PM 35.6 °F 25.5 °F 33.8 °F 93% 29.86 in 2.0 mi North 17.3 mph 25.3 mph N/A Rain , Snow Light Snow
1:54 PM 35.6 °F 25.5 °F 33.8 °F 93% 29.85 in 1.0 mi North 17.3 mph 24.2 mph 0.01 in Rain , Snow Light Snow
2:24 PM 33.8 °F 22.8 °F 33.8 °F 100% 29.85 in 0.8 mi North 18.4 mph 23.0 mph 0.07 in Rain , Snow Light Snow
2:51 PM 34.0 °F 22.4 °F 33.1 °F 96% 29.85 in 0.8 mi North 20.7 mph 27.6 mph 0.12 in Rain , Snow Rain
3:51 PM 33.1 °F 20.6 °F 32.0 °F 96% 29.85 in 0.5 mi North 23.0 mph 29.9 mph 0.10 in Rain , Snow Rain
4:51 PM 33.1 °F 23.4 °F 32.0 °F 96% 29.86 in 0.8 mi North 13.8 mph 28.8 mph 0.08 in Rain , Snow Light Rain
5:51 PM 33.8 °F 22.8 °F 30.2 °F 87% 29.87 in 0.5 mi North 18.4 mph - N/A Snow Snow
6:51 PM 32.0 °F 19.5 °F 30.9 °F 96% 29.84 in 0.5 mi North 21.9 mph 33.4 mph 0.08 in Snow Light Snow
7:47 PM 32.0 °F 19.2 °F 30.2 °F 93% 29.83 in 1.0 mi NNW 23.0 mph 29.9 mph 0.11 in Snow Light Snow
7:51 PM 32.0 °F 20.5 °F 30.9 °F 96% 29.83 in 1.0 mi NNW 18.4 mph 29.9 mph 0.12 in Snow Light Snow
8:51 PM 32.0 °F 20.5 °F 30.9 °F 96% 29.83 in 1.0 mi North 18.4 mph 29.9 mph 0.11 in Snow Light Snow
9:51 PM 32.0 °F 20.5 °F 30.9 °F 96% 29.82 in 1.0 mi NNW 18.4 mph 25.3 mph 0.11 in Snow Light Snow
10:18 PM 33.8 °F 22.2 °F 30.2 °F 87% 29.81 in 1.0 mi NNW 20.7 mph 27.6 mph 0.05 in Snow Light Snow
10:51 PM 33.1 °F 20.9 °F 30.9 °F 92% 29.79 in 1.0 mi NNW 21.9 mph 34.5 mph 0.10 in Rain , Snow Light Snow
11:51 PM 33.8 °F 23.9 °F 30.2 °F 87% 29.80 in 1.5 mi North 15.0 mph 23.0 mph N/A Snow Light Snow